[[{"header":{"parameterUnit":"m.s-1","parameterCategory":1,"la1":30.2991,"la2":30.254,"lo1":-89.0895,"lo2":-89.0444,"dy":0.0017,"dx":0.0017,"nx":28,"ny":28,"refTime":"2024-05-16T09:00:00:Z","depth":0,"parameterNumber":2,"parameterNumberName":"U-component_of_WINDS"},"data":[0,0,0,0,0,0,0,0,0,0,0,0,0,0,0,0,0,0,0,0,0,0,0,0,0,0,0,0,0,0,0,0,0,0,0,0,0,0,0,0,0,0,0,0,0,0,0,0,0,0,0,0,0,0,0,0,0,0,-4.2732,-4.2733,0,-4.2761,-4.2761,-4.2761,-4.2688,-4.2685,-4.2683,-4.2681,-4.2709,-4.2712,-4.2715,0,0,0,0,0,0,0,0,0,0,0,0,0,-4.2614,-4.2616,-4.2732,-4.2733,-4.2733,-4.2761,-4.2761,-4.2761,-4.2688,-4.2685,-4.2682,-4.268,-4.2708,-4.2711,-4.2715,0,0,0,0,0,0,0,0,0,0,0,0,0,-4.2656,-4.2617,-4.2732,-4.27,-4.2697,-4.2761,-4.2761,-4.2761,-4.2689,-4.2685,-4.2682,-4.2678,-4.2707,-4.2711,-4.2715,-4.2811,0,0,-4.2729,-4.273,0,0,0,0,0,0,0,0,-4.2654,-4.266,-4.2704,-4.2702,-4.2699,-4.2717,-4.2729,-4.2778,-4.2689,-4.2692,-4.2681,-4.2677,-4.2714,-4.2718,-4.2731,-4.2813,-4.2814,-4.2729,-4.2732,-4.2733,-4.2735,0,0,0,0,0,0,0,-4.2651,-4.2659,-4.2743,-4.2705,-4.2702,-4.2683,-4.2686,-4.2738,-4.2722,-4.2691,-4.2686,-4.269,-4.2712,-4.2727,-4.2731,-4.2814,-4.2729,-4.2733,-4.2735,-4.2737,-4.2975,-4.2979,0,0,0,0,0,0,-4.2652,-4.2657,-4.2743,-4.2744,-4.2668,-4.2688,-4.2691,-4.2715,-4.2721,-4.2719,-4.2693,-4.2687,-4.2721,-4.2726,-4.2732,-4.2843,-4.2733,-4.2738,-4.274,-4.2972,-4.2976,-4.298,0,0,0,0,0,0,-4.265,-4.2661,-4.2741,-4.2699,-4.2708,-4.2694,-4.2722,-4.2717,-4.2731,-4.2723,-4.2719,-4.2711,-4.2718,-4.2725,-4.2792,-4.2843,-4.2739,-4.2743,-4.2967,-4.2973,-4.2978,-4.3068,0,0,0,0,0,0,-4.2647,-4.266,-4.2697,-4.2701,-4.2711,-4.2802,-4.2725,-4.272,-4.2739,-4.2731,-4.2739,-4.2736,-4.2716,-4.2786,-4.2796,-4.2847,-4.2747,-4.2963,-4.297,-4.2976,-4.306,-4.3076,-4.3089,0,0,0,0,0,-4.2643,-4.2721,-4.2699,-4.271,-4.2756,-4.2805,-4.281,-4.2786,-4.2744,-4.278,-4.2775,-4.2736,-4.2837,-4.2793,-4.2804,-4.2857,-4.2959,-4.2968,-4.2976,-4.3054,-4.3073,-4.3089,0,0,0,0,0,0,-4.2723,-4.2721,-4.2696,-4.2778,-4.2792,-4.2792,-4.2837,-4.2807,-4.2833,-4.2824,-4.2793,-4.2795,-4.2867,-4.2869,-4.2821,-4.295,-4.289,-4.2902,-4.2946,-4.2964,-4.2978,-4.2975,-4.275,0,0,0,0,0,-4.275,-4.279,-4.2786,-4.2859,-4.2867,-4.2851,-4.2872,-4.2852,-4.2865,-4.287,-4.287,-4.2884,-4.2918,-4.2942,-4.2973,-4.3061,-4.3061,-4.3103,-4.3118,-4.313,-4.3139,-4.3185,-4.3203,-4.3008,-4.3008,-4.3007,0,0,-4.2806,-4.281,-4.2837,-4.2875,-4.2883,-4.2925,-4.2857,-4.2904,-4.2934,-4.2877,-4.294,-4.294,-4.2954,-4.3031,-4.3065,-4.3035,-4.3193,-4.314,-4.315,-4.3153,-4.3195,-4.3214,-4.323,-4.3013,-4.3012,-4.3011,0,0,-4.293,-4.2938,-4.2998,-4.3009,-4.3023,-4.3012,-4.3027,-4.3032,-4.303,-4.3092,-4.305,-4.3086,-4.3146,-4.3157,-4.3171,-4.33,-4.3265,-4.3311,-4.3386,-4.3431,-4.3447,-4.346,-4.3505,-4.3521,-4.3321,-4.3321,-4.3321,0,-4.2998,-4.306,-4.3033,-4.3083,-4.31,-4.3052,-4.3112,-4.3124,-4.3148,-4.316,-4.3127,-4.3201,-4.3207,-4.3286,-4.3317,-4.3331,-4.3346,-4.3309,-4.3447,-4.346,-4.3472,-4.3514,-4.3531,-4.3327,-4.3326,-4.3325,-4.3325,0,-4.3142,-4.3185,-4.3233,-4.3257,-4.328,-4.3335,-4.3317,-4.3343,-4.3322,-4.3314,-4.3378,-4.3384,-4.3415,-4.3433,-4.3412,-4.3509,-4.3489,-4.3452,-4.3391,-4.3496,-4.3535,-4.3551,-4.3334,-4.3332,-4.3331,-4.3329,0,0,-4.3315,-4.3325,-4.3342,-4.3352,-4.3365,-4.3398,-4.3451,-4.3482,-4.3504,-4.3523,-4.3566,-4.3619,-4.3584,-4.36,-4.358,-4.362,-4.372,-4.3577,-4.3577,-4.3602,-4.3826,-4.3853,-4.3872,-4.3698,-4.3701,-4.3704,-4.3824,0,-4.3436,-4.3527,-4.3505,-4.3595,-4.3634,-4.3589,-4.3635,-4.3648,-4.3643,-4.3675,-4.3669,-4.3706,-4.3659,-4.3668,-4.3705,-4.37,-4.3764,-4.3691,-4.3737,-4.3739,-4.3733,-4.3892,-4.3921,-4.4034,-4.3839,-4.3842,-4.3844,0,-4.3588,-4.3613,-4.3707,-4.3713,-4.3728,-4.377,-4.3796,-4.3829,-4.3842,-4.3835,-4.3853,-4.3826,-4.3878,-4.3818,-4.3889,-4.384,-4.3857,-4.3858,-4.3862,-4.3863,-4.3796,-4.3897,-4.407,-4.4086,-4.3868,-4.3866,-4.3864,0,-4.3703,-4.376,-4.3823,-4.3834,-4.3842,-4.3873,-4.3878,-4.3888,-4.3908,-4.3931,-4.3943,-4.3973,-4.3988,-4.4012,-4.3993,-4.3951,-4.4066,-4.4005,-4.4061,-4.4062,-4.4086,-4.4084,-4.4262,-4.4101,-4.41,-4.41,-4.41,0,-4.3839,-4.3898,-4.3875,-4.3914,-4.3978,-4.3953,-4.4017,-4.4017,-4.4026,-4.4064,-4.4027,-4.4063,-4.4037,-4.4071,-4.4057,-4.4117,-4.4124,-4.412,-4.4115,-4.4122,-4.4123,-4.4132,-4.4123,-4.4104,-4.4103,-4.4103,-4.4102,0,-4.3978,-4.3965,-4.403,-4.4034,-4.4036,-4.4083,-4.4086,-4.4121,-4.4114,-4.4162,-4.4172,-4.416,-4.4198,-4.4182,-4.4222,-4.4213,-4.4289,-4.4275,-4.4285,-4.428,-4.4337,-4.4331,-4.4525,-4.4549,-4.4374,-4.4376,-4.4377,0,-4.4065,-4.4109,-4.4117,-4.414,-4.4147,-4.4185,-4.4205,-4.4182,-4.4204,-4.4223,-4.4256,-4.4291,-4.4317,-4.438,-4.4375,-4.4405,-4.439,-4.4456,-4.4394,-4.44,-4.4389,-4.4386,-4.4389,-4.4468,-4.447,-4.4472,-4.4473,0,-4.422,-4.4211,-4.4242,-4.427,-4.4296,-4.4317,-4.4335,-4.4356,-4.4334,-4.4361,-4.4399,-4.442,-4.4461,-4.4495,-4.4522,-4.4527,-4.4496,-4.4493,-4.4507,-4.4514,-4.4517,-4.4514,-4.4316,-4.4488,-4.4486,-4.4485,-4.4485,-4.4484,-4.4334,-4.437,-4.4382,-4.4417,-4.4429,-4.4447,-4.448,-4.4477,-4.4509,-4.454,-4.4525,-4.4569,-4.4581,-4.4614,-4.4623,-4.4657,-4.4631,-4.4652,-4.4657,-4.4663,-4.4669,-4.4513,-4.4662,-4.4662,-4.4662,-4.4661,-4.4661,0,-4.4485,-4.4491,-4.4524,-4.455,-4.4578,-4.4548,-4.4566,-4.4591,-4.4631,-4.4645,-4.4672,-4.4716,-4.4749,-4.4747,-4.4778,-4.4805,-4.4792,-4.4814,-4.4811,-4.4812,-4.4692,-4.4675,-4.4824,-4.4824,-4.4824,-4.4824,-4.4824,-4.4824,-4.4567,-4.4628,-4.4621,-4.4686,-4.4691,-4.4734,-4.4747,-4.4764,-4.4774,-4.4825,-4.4853,-4.4852,-4.4859,-4.489,-4.4919,-4.4918,-4.493,-4.4957,-4.495,-4.4837,-4.4821,-4.4805,-4.479,-4.496,-4.4961,-4.5068,-4.5069,-4.5069]},{"header":{"parameterUnit":"m.s-1","parameterCategory":1,"la1":30.2991,"la2":30.254,"lo1":-89.0895,"lo2":-89.0444,"dy":0.0017,"dx":0.0017,"nx":28,"ny":28,"refTime":"2024-05-16T09:00:00:Z","depth":0,"parameterNumber":3,"parameterNumberName":"V-component_of_WINDS"},"data":[0,0,0,0,0,0,0,0,0,0,0,0,0,0,0,0,0,0,0,0,0,0,0,0,0,0,0,0,0,0,0,0,0,0,0,0,0,0,0,0,0,0,0,0,0,0,0,0,0,0,0,0,0,0,0,0,0,0,4.5321,4.5321,0,4.5387,4.5388,4.5388,4.5358,4.5356,4.5354,4.5353,4.5415,4.5418,4.5422,0,0,0,0,0,0,0,0,0,0,0,0,0,4.5164,4.5167,4.5321,4.5322,4.5322,4.5387,4.5388,4.5388,4.5358,4.5356,4.5354,4.5352,4.5414,4.5418,4.5422,0,0,0,0,0,0,0,0,0,0,0,0,0,4.5231,4.5168,4.5321,4.5315,4.5315,4.5386,4.5388,4.5389,4.5358,4.5356,4.5353,4.5351,4.5413,4.5418,4.5422,4.5501,0,0,4.5437,4.5439,0,0,0,0,0,0,0,0,4.5227,4.5237,4.5315,4.5316,4.5316,4.5362,4.5355,4.5426,4.5359,4.5342,4.5353,4.535,4.5399,4.5405,4.5422,4.5504,4.5507,4.5437,4.544,4.5442,4.5444,0,0,0,0,0,0,0,4.5223,4.5234,4.5347,4.5316,4.5317,4.5308,4.5315,4.5368,4.5383,4.5343,4.5341,4.535,4.5399,4.5418,4.5424,4.5508,4.5437,4.5442,4.5445,4.5446,4.5659,4.5661,0,0,0,0,0,0,4.5219,4.523,4.5345,4.5349,4.5265,4.5313,4.532,4.5349,4.5383,4.5385,4.5352,4.5348,4.5411,4.5418,4.5426,4.5521,4.5442,4.5447,4.545,4.5656,4.5659,4.5662,0,0,0,0,0,0,4.5216,4.5229,4.5342,4.5289,4.5303,4.5318,4.5351,4.5352,4.5371,4.5389,4.5391,4.5369,4.5409,4.5419,4.5483,4.5523,4.5449,4.5453,4.5653,4.5657,4.5661,4.5712,0,0,0,0,0,0,4.5211,4.5228,4.5259,4.529,4.5306,4.54,4.5353,4.5355,4.538,4.5376,4.5406,4.5408,4.5408,4.5476,4.5488,4.5528,4.5457,4.5649,4.5655,4.5659,4.5707,4.5718,4.5727,0,0,0,0,0,4.5206,4.527,4.5261,4.5275,4.5345,4.5402,4.5411,4.5411,4.5383,4.5414,4.5426,4.5407,4.5517,4.5483,4.5496,4.5538,4.5647,4.5653,4.5659,4.5703,4.5716,4.5727,0,0,0,0,0,0,4.5241,4.5274,4.5264,4.5341,4.5369,4.5397,4.5436,4.5424,4.546,4.5454,4.5451,4.5458,4.5525,4.5538,4.55,4.5617,4.5577,4.5586,4.5606,4.5618,4.5628,4.5623,4.5461,0,0,0,0,0,4.5259,4.5304,4.5329,4.5394,4.5409,4.542,4.5445,4.5443,4.5471,4.5482,4.5499,4.5526,4.5567,4.5593,4.5631,4.5709,4.5715,4.5744,4.5754,4.5762,4.577,4.5812,4.5826,4.5683,4.5683,4.5682,0,0,4.5293,4.5317,4.5345,4.5402,4.5423,4.5469,4.543,4.548,4.5514,4.5489,4.5552,4.5565,4.5595,4.5667,4.5699,4.568,4.5811,4.577,4.5776,4.578,4.582,4.5834,4.5846,4.5687,4.5686,4.5685,0,0,4.5381,4.5403,4.546,4.5484,4.5518,4.5525,4.5539,4.5569,4.5578,4.5641,4.5624,4.5663,4.5733,4.5756,4.5776,4.5874,4.5858,4.5886,4.5937,4.5979,4.599,4.6,4.6035,4.6048,4.5894,4.5894,4.5894,0,4.542,4.549,4.5491,4.5543,4.5568,4.5551,4.5608,4.563,4.5674,4.5691,4.5669,4.5758,4.5776,4.5854,4.5878,4.5895,4.591,4.5883,4.5989,4.5999,4.6008,4.6042,4.6055,4.5897,4.5897,4.5897,4.5896,0,4.5536,4.5585,4.5626,4.5672,4.5702,4.5756,4.5764,4.5794,4.579,4.5799,4.5864,4.5886,4.5929,4.5947,4.5942,4.6024,4.6011,4.5989,4.5949,4.6025,4.6056,4.6069,4.5902,4.5901,4.59,4.5899,0,0,4.5647,4.5694,4.5709,4.573,4.5768,4.5805,4.5858,4.5902,4.5928,4.5959,4.6003,4.6064,4.6045,4.6068,4.6065,4.6102,4.6179,4.6076,4.6076,4.6094,4.627,4.6287,4.6302,4.6169,4.6171,4.6173,4.6268,0,4.5737,4.5833,4.5836,4.5923,4.5968,4.5953,4.5999,4.6026,4.6037,4.6075,4.6086,4.6129,4.61,4.6114,4.615,4.6162,4.6214,4.6155,4.6209,4.6211,4.6202,4.6318,4.6335,4.6424,4.628,4.6282,4.6284,0,4.5856,4.5893,4.5986,4.6018,4.6037,4.6079,4.612,4.6157,4.6188,4.6193,4.622,4.6213,4.6266,4.6225,4.6298,4.6258,4.628,4.629,4.6293,4.6298,4.6252,4.6326,4.6452,4.6465,4.6303,4.6302,4.63,0,4.5928,4.6001,4.6067,4.6085,4.6124,4.6154,4.6171,4.6199,4.6226,4.6262,4.6279,4.6319,4.6341,4.6372,4.6375,4.6345,4.6449,4.6408,4.6454,4.6454,4.6477,4.6475,4.6608,4.6491,4.6491,4.6491,4.649,0,4.6029,4.6086,4.61,4.614,4.6203,4.6206,4.6268,4.6282,4.6308,4.6349,4.6338,4.6377,4.6379,4.6418,4.6421,4.6482,4.6491,4.6496,4.6496,4.6498,4.6497,4.6512,4.6506,4.6494,4.6493,4.6493,4.6492,0,4.612,4.6132,4.6202,4.6234,4.6243,4.6289,4.6315,4.6353,4.6363,4.6416,4.6428,4.6443,4.6489,4.6496,4.6549,4.6551,4.6624,4.6617,4.6614,4.6613,4.6659,4.6655,4.6806,4.6826,4.6696,4.6697,4.6698,0,4.6184,4.6228,4.6265,4.6294,4.6313,4.6358,4.6386,4.639,4.642,4.6459,4.6491,4.6537,4.6574,4.6648,4.6663,4.6704,4.6698,4.6748,4.6704,4.6704,4.6699,4.6697,4.6701,4.6757,4.6758,4.6759,4.676,0,4.6296,4.63,4.6342,4.6386,4.6421,4.6455,4.6487,4.6511,4.6519,4.6552,4.66,4.6629,4.6685,4.673,4.6771,4.6787,4.6775,4.6774,4.6787,4.6789,4.6785,4.6788,4.6638,4.677,4.6769,4.6769,4.6768,4.6768,4.6376,4.6415,4.6448,4.6495,4.652,4.6551,4.6589,4.6604,4.6645,4.6693,4.6692,4.6745,4.6775,4.6829,4.6848,4.6889,4.6872,4.689,4.6895,4.69,4.6905,4.6779,4.6896,4.6896,4.6895,4.6895,4.6895,0,4.6488,4.6509,4.6552,4.6599,4.6636,4.6624,4.6659,4.6691,4.6738,4.6768,4.6805,4.6861,4.6905,4.6924,4.6967,4.6996,4.6991,4.7007,4.7005,4.7009,4.6917,4.6902,4.701,4.701,4.701,4.701,4.701,4.701,4.655,4.6616,4.6624,4.6702,4.6722,4.6775,4.6797,4.6825,4.6849,4.6913,4.695,4.6963,4.6988,4.7033,4.7073,4.7077,4.7093,4.7112,4.7113,4.7027,4.7015,4.7004,4.699,4.7115,4.7115,4.7202,4.7203,4.7204]}]]